GW0658 Weather Reports


Display with metric or nautical units.
time (UTC)temp
F
wind
direction
speed
MPH
gust
MPH
rain 1hr
in
rain 24hr
in
rain mn
in
humidity
%
barometer
mb
20260906211551 69 205 4.0 12.0 0.00 0.00 0.00 43 1017.9
20260906211026 70 194 5.0 9.0 0.00 0.00 0.00 41 1018.0
20260906210525 70 205 4.0 10.0 0.00 0.00 0.00 42 1018.0
20260906210056 70 182 5.0 10.0 0.00 0.00 0.00 42 1018.1
20260906205524 70 222 3.0 9.0 0.00 0.00 0.00 43 1018.0
20260906205021 70 205 5.0 8.0 0.00 0.00 0.00 43 1018.1
20260906204554 70 225 3.0 11.0 0.00 0.00 0.00 43 1018.0
20260906204025 70 215 6.0 11.0 0.00 0.00 0.00 43 1018.0
20260906203525 70 246 3.0 10.0 0.00 0.00 0.00 44 1018.0
20260906203051 69 205 2.0 11.0 0.00 0.00 0.00 44 1018.1
20260906202524 69 176 3.0 11.0 0.00 0.00 0.00 45 1018.0
20260906202024 70 189 6.0 11.0 0.00 0.00 0.00 44 1018.0
20260906201552 69 219 5.0 10.0 0.00 0.00 0.00 45 1018.0
20260906201024 71 202 4.0 9.0 0.00 0.00 0.00 43 1018.0
20260906200527 71 221 4.0 10.0 0.00 0.00 0.00 44 1017.8
20260906200046 70 199 5.0 10.0 0.00 0.00 0.00 44 1017.9
20260906195524 70 198 5.0 11.0 0.00 0.00 0.00 45 1017.8
20260906195024 70 174 3.0 12.0 0.00 0.00 0.00 46 1017.8
20260906194558 70 221 4.0 12.0 0.00 0.00 0.00 46 1017.8
20260906194025 71 199 5.0 12.0 0.00 0.00 0.00 46 1017.9
20260906193521 70 196 5.0 9.0 0.00 0.00 0.00 46 1017.9
20260906193042 70 198 3.0 9.0 0.00 0.00 0.00 45 1017.8
20260906192519 71 115 3.0 9.0 0.00 0.00 0.00 45 1017.8
20260906192024 70 205 4.0 10.0 0.00 0.00 0.00 47 1017.8
20260906191548 70 223 3.0 10.0 0.00 0.00 0.00 45 1017.8
20260906191025 70 174 2.0 11.0 0.00 0.00 0.00 45 1017.8
20260906190527 70 216 5.0 11.0 0.00 0.00 0.00 45 1017.8
20260906190042 70 172 2.0 18.0 0.00 0.00 0.00 46 1017.8
20260906185521 70 188 4.0 18.0 0.00 0.00 0.00 47 1017.8
20260906185021 70 215 3.0 11.0 0.00 0.00 0.00 46 1017.8
20260906184541 70 180 5.0 8.0 0.00 0.00 0.00 46 1017.8
20260906184020 70 194 3.0 11.0 0.00 0.00 0.00 46 1017.8
20260906183520 69 298 3.0 11.0 0.00 0.00 0.00 48 1017.8
20260906183057 69 198 3.0 13.0 0.00 0.00 0.00 47 1017.9
20260906182520 69 157 3.0 13.0 0.00 0.00 0.00 46 1017.9
20260906182019 70 231 5.0 8.0 0.00 0.00 0.00 46 1017.9
20260906181545 70 250 3.0 8.0 0.00 0.00 0.00 46 1017.9
20260906181023 70 198 3.0 8.0 0.00 0.00 0.00 47 1018.0
20260906180522 69 288 3.0 10.0 0.00 0.00 0.00 48 1018.0
20260906175524 68 171 4.0 14.0 0.00 0.00 0.00 48 1018.1
20260906175021 68 158 4.0 14.0 0.00 0.00 0.00 48 1018.0
20260906174540 68 188 3.0 9.0 0.00 0.00 0.00 49 1018.1
20260906174020 67 232 4.0 10.0 0.00 0.00 0.00 49 1018.1
20260906173519 67 199 3.0 10.0 0.00 0.00 0.00 50 1018.0
20260906173043 67 234 2.0 7.0 0.00 0.00 0.00 50 1018.0
20260906172526 67 178 2.0 6.0 0.00 0.00 0.00 50 1018.0
20260906172021 66 346 2.0 7.0 0.00 0.00 0.00 51 1017.9
20260906171601 66 285 2.0 7.0 0.00 0.00 0.00 51 1017.8
20260906171021 66 312 1.0 8.0 0.00 0.00 0.00 52 1017.8
20260906170521 66 161 1.0 8.0 0.00 0.00 0.00 52 1018.0
20260906170047 65 158 2.0 16.0 0.00 0.00 0.00 53 1017.9
20260906165521 65 349 3.0 16.0 0.00 0.00 0.00 54 1018.0
20260906165019 64 256 1.0 16.0 0.00 0.00 0.00 55 1017.9
20260906164541 64 228 3.0 7.0 0.00 0.00 0.00 55 1017.8
20260906164021 64 280 1.0 6.0 0.00 0.00 0.00 57 1018.0
20260906163520 63 0 2.0 6.0 0.00 0.00 0.00 57 1018.0
20260906163040 63 352 1.0 5.0 0.00 0.00 0.00 58 1018.0
20260906162522 62 242 0.0 6.0 0.00 0.00 0.00 60 1018.0
20260906162022 61 246 1.0 6.0 0.00 0.00 0.00 60 1018.0
20260906161604 61 165 1.0 7.0 0.00 0.00 0.00 61 1018.1
20260906161021 60 0 1.0 7.0 0.00 0.00 0.00 62 1018.1
20260906160520 59 0 0.0 4.0 0.00 0.00 0.00 64 1018.1
20260906160043 58 0 0.0 6.0 0.00 0.00 0.00 68 1018.1
20260906155520 57 128 1.0 6.0 0.00 0.00 0.00 67 1018.1
20260906155020 57 0 0.0 2.0 0.00 0.00 0.00 70 1018.1
20260906154546 56 0 0.0 2.0 0.00 0.00 0.00 70 1018.1
20260906154021 56 0 0.0 2.0 0.00 0.00 0.00 71 1018.1
20260906153520 56 0 0.0 0.0 0.00 0.00 0.00 71 1018.1
20260906153104 56 0 0.0 0.0 0.00 0.00 0.00 71 1018.1
20260906152525 56 0 0.0 0.0 0.00 0.00 0.00 72 1018.1
20260906152022 56 0 0.0 0.0 0.00 0.00 0.00 71 1018.0
20260906151541 56 0 0.0 0.0 0.00 0.00 0.00 71 1018.0
20260906151023 56 0 0.0 0.0 0.00 0.00 0.00 70 1018.0
20260906150521 56 0 0.0 0.0 0.00 0.00 0.00 71 1018.0
20260906150041 56 0 0.0 0.0 0.00 0.00 0.00 70 1018.0
20260906145520 55 0 0.0 0.0 0.00 0.00 0.00 71 1018.0
20260906145018 55 0 0.0 0.0 0.00 0.00 0.00 71 1017.9
20260906144549 55 0 0.0 0.0 0.00 0.00 0.00 71 1017.8
20260906144022 55 0 0.0 0.0 0.00 0.00 0.00 72 1017.9
20260906143523 55 0 0.0 3.0 0.00 0.00 0.00 71 1017.8
20260906143043 54 0 0.0 3.0 0.00 0.00 0.00 71 1017.8
20260906142520 54 53 1.0 3.0 0.00 0.00 0.00 71 1017.7
20260906142023 54 49 1.0 3.0 0.00 0.00 0.00 71 1017.6
20260906141550 54 52 1.0 3.0 0.00 0.00 0.00 71 1017.6
20260906141020 54 50 1.0 3.0 0.00 0.00 0.00 71 1017.6
20260906140520 54 55 1.0 3.0 0.00 0.00 0.00 70 1017.4
20260906140040 54 0 1.0 3.0 0.00 0.00 0.00 71 1017.4
20260906135524 54 49 1.0 3.0 0.00 0.00 0.00 70 1017.4
20260906135023 54 55 1.0 3.0 0.00 0.00 0.00 70 1017.4
20260906134548 54 59 1.0 3.0 0.00 0.00 0.00 70 1017.4
20260906134023 54 53 1.0 3.0 0.00 0.00 0.00 70 1017.3
20260906133521 54 49 1.0 3.0 0.00 0.00 0.00 70 1017.3
20260906133045 54 54 1.0 3.0 0.00 0.00 0.00 70 1017.2
20260906132526 54 50 2.0 3.0 0.00 0.00 0.00 70 1017.3
20260906132020 54 64 1.0 3.0 0.00 0.00 0.00 70 1017.2
20260906131602 54 55 1.0 3.0 0.00 0.00 0.00 70 1017.2
20260906131025 54 0 1.0 3.0 0.00 0.00 0.00 70 1017.1
20260906130524 54 34 1.0 3.0 0.00 0.00 0.00 70 1017.1
20260906130056 54 58 1.0 4.0 0.00 0.00 0.00 70 1017.1
20260906125521 55 55 2.0 4.0 0.00 0.00 0.00 70 1017.2
20260906125023 55 45 1.0 3.0 0.00 0.00 0.00 69 1017.1
20260906124547 55 50 1.0 3.0 0.00 0.00 0.00 69 1017.0
20260906124022 55 45 1.0 3.0 0.00 0.00 0.00 69 1017.1
20260906123518 55 49 1.0 3.0 0.00 0.00 0.00 69 1017.1
20260906123056 55 46 1.0 3.0 0.00 0.00 0.00 69 1017.0
20260906122524 55 57 1.0 3.0 0.00 0.00 0.00 69 1017.1
20260906122024 55 47 1.0 3.0 0.00 0.00 0.00 69 1017.1
20260906121549 55 46 1.0 3.0 0.00 0.00 0.00 69 1017.1
20260906121029 55 66 1.0 3.0 0.00 0.00 0.00 69 1017.2
20260906120525 55 68 1.0 3.0 0.00 0.00 0.00 69 1017.1
20260906120046 55 65 1.0 3.0 0.00 0.00 0.00 70 1017.2
20260906115524 55 63 1.0 3.0 0.00 0.00 0.00 70 1017.2
20260906115020 55 61 1.0 3.0 0.00 0.00 0.00 69 1017.2
20260906114548 54 64 0.0 3.0 0.00 0.00 0.00 69 1017.1
20260906114020 54 0 0.0 3.0 0.00 0.00 0.00 70 1017.1
20260906113524 55 0 0.0 0.0 0.00 0.00 0.00 69 1017.1
20260906113051 54 0 0.0 3.0 0.00 0.00 0.00 70 1017.1
20260906112524 54 0 0.0 3.0 0.00 0.00 0.00 70 1017.1
20260906112025 54 61 1.0 3.0 0.00 0.00 0.00 70 1017.1
20260906111548 54 55 1.0 3.0 0.00 0.00 0.00 70 1017.1
20260906111024 54 56 0.0 3.0 0.00 0.00 0.00 70 1017.0
20260906110524 54 56 1.0 4.0 0.00 0.00 0.00 70 1017.1
20260906110042 54 57 1.0 4.0 0.00 0.00 0.00 69 1017.1
20260906105521 54 54 1.0 3.0 0.00 0.00 0.00 69 1017.0
20260906105018 55 57 1.0 3.0 0.00 0.00 0.00 69 1017.1
20260906104541 54 0 1.0 4.0 0.00 0.00 0.00 70 1017.1
20260906104021 54 63 1.0 4.0 0.00 0.00 0.00 70 1017.1
20260906103524 54 0 1.0 3.0 0.00 0.00 0.00 70 1017.1
20260906103051 54 63 1.0 3.0 0.00 0.00 0.00 70 1017.1
20260906102528 55 0 1.0 3.0 0.00 0.00 0.00 70 1017.1
20260906102024 54 63 1.0 3.0 0.00 0.00 0.00 70 1017.1
20260906101549 54 0 1.0 3.0 0.00 0.00 0.00 70 1017.1
20260906101024 54 57 1.0 3.0 0.00 0.00 0.00 70 1017.2
20260906100528 54 58 1.0 3.0 0.00 0.00 0.00 70 1017.2
20260906100040 54 0 1.0 3.0 0.00 0.00 0.00 70 1017.2
20260906095525 54 57 2.0 4.0 0.00 0.00 0.00 70 1017.2
20260906095021 55 52 1.0 4.0 0.00 0.00 0.00 70 1017.3
20260906094545 55 54 1.0 4.0 0.00 0.00 0.00 70 1017.3
20260906094024 55 54 1.0 4.0 0.00 0.00 0.00 70 1017.3
20260906093525 55 42 1.0 4.0 0.00 0.00 0.00 70 1017.4
20260906093042 55 54 1.0 3.0 0.00 0.00 0.00 70 1017.4
20260906092523 55 59 0.0 3.0 0.00 0.00 0.00 70 1017.4
20260906092026 55 58 1.0 2.0 0.00 0.00 0.00 70 1017.4
20260906091549 55 0 0.0 0.0 0.00 0.00 0.00 70 1017.4
20260906091023 55 0 0.0 0.0 0.00 0.00 0.00 69 1017.5
20260906090523 55 0 0.0 0.0 0.00 0.00 0.00 69 1017.5
20260906090052 56 0 0.0 0.0 0.00 0.00 0.00 69 1017.5
20260906085521 56 0 0.0 0.0 0.00 0.00 0.00 69 1017.5
20260906085021 56 0 0.0 0.0 0.00 0.00 0.00 69 1017.5
20260906084543 56 0 0.0 0.0 0.00 0.00 0.00 68 1017.6
20260906084030 56 0 0.0 0.0 0.00 0.00 0.00 68 1017.5
20260906083524 56 0 0.0 0.0 0.00 0.00 0.00 68 1017.6
20260906083047 56 0 0.0 0.0 0.00 0.00 0.00 68 1017.7
20260906082523 56 0 0.0 0.0 0.00 0.00 0.00 68 1017.7
20260906082023 56 0 0.0 0.0 0.00 0.00 0.00 68 1017.6
20260906081547 57 0 0.0 0.0 0.00 0.00 0.00 68 1017.7
20260906081021 57 0 0.0 0.0 0.00 0.00 0.00 68 1017.6
20260906080522 56 0 0.0 0.0 0.00 0.00 0.00 68 1017.5
20260906080047 56 0 0.0 0.0 0.00 0.00 0.00 68 1017.6
20260906075519 56 0 0.0 0.0 0.00 0.00 0.00 68 1017.6
20260906075021 56 0 0.0 0.0 0.00 0.00 0.00 68 1017.5
20260906074541 56 0 0.0 0.0 0.00 0.00 0.00 68 1017.5
20260906074021 57 0 0.0 0.0 0.00 0.00 0.00 68 1017.6
20260906073552 57 0 0.0 0.0 0.00 0.00 0.00 68 1017.6
20260906073042 57 0 0.0 0.0 0.00 0.00 0.00 68 1017.5
20260906072528 57 0 0.0 0.0 0.00 0.00 0.00 68 1017.5
20260906072024 56 0 0.0 0.0 0.00 0.00 0.00 68 1017.6
20260906071548 56 0 0.0 0.0 0.00 0.00 0.00 68 1017.5
20260906071024 56 0 0.0 0.0 0.00 0.00 0.00 68 1017.5
20260906070526 56 0 0.0 0.0 0.00 0.00 0.00 68 1017.7
20260906070043 56 0 0.0 0.0 0.00 0.00 0.00 68 1017.6
20260906065521 56 0 0.0 0.0 0.00 0.00 0.00 67 1017.5
20260906065022 56 0 0.0 0.0 0.00 0.00 0.00 67 1017.6
20260906064540 56 0 0.0 0.0 0.00 0.00 0.00 68 1017.6
20260906064024 56 0 0.0 0.0 0.00 0.00 0.00 67 1017.6
20260906063523 56 0 0.0 2.0 0.00 0.00 0.00 67 1017.7
20260906063041 57 0 0.0 3.0 0.00 0.00 0.00 67 1017.7
20260906062523 57 47 1.0 4.0 0.00 0.00 0.00 67 1017.6
20260906062022 57 15 1.0 4.0 0.00 0.00 0.00 67 1017.7
20260906061547 57 22 1.0 4.0 0.00 0.00 0.00 66 1017.7
20260906061023 57 0 0.0 4.0 0.00 0.00 0.00 66 1017.8
20260906060524 57 5 0.0 4.0 0.00 0.00 0.00 66 1017.8
20260906060111 57 5 1.0 4.0 0.00 0.00 0.00 66 1017.8
20260906055523 57 5 2.0 4.0 0.00 0.00 0.00 66 1017.8
20260906055024 56 5 1.0 4.0 0.00 0.00 0.00 66 1017.8
20260906054551 56 0 0.0 0.0 0.00 0.00 0.00 66 1017.8
20260906054022 56 0 0.0 0.0 0.00 0.00 0.00 67 1017.8
20260906053522 56 0 0.0 0.0 0.00 0.00 0.00 67 1017.9
20260906053042 55 0 0.0 0.0 0.00 0.00 0.00 67 1017.9
20260906052520 55 0 0.0 0.0 0.00 0.00 0.00 67 1017.9
20260906052026 55 0 0.0 0.0 0.00 0.00 0.00 67 1018.0
20260906051540 55 0 0.0 0.0 0.00 0.00 0.00 66 1018.1
20260906051024 56 0 0.0 0.0 0.00 0.00 0.00 66 1018.1
20260906050527 56 0 0.0 0.0 0.00 0.00 0.00 65 1018.1
20260906050047 56 0 0.0 0.0 0.00 0.00 0.00 64 1018.1
20260906045522 57 0 0.0 0.0 0.00 0.00 0.00 64 1018.1
20260906045021 57 0 0.0 0.0 0.00 0.00 0.00 64 1018.0
20260906044545 57 0 0.0 0.0 0.00 0.00 0.00 64 1018.0
20260906044023 57 0 0.0 0.0 0.00 0.00 0.00 64 1018.1
20260906043526 57 0 0.0 0.0 0.00 0.00 0.00 64 1018.0
20260906043041 57 0 0.0 0.0 0.00 0.00 0.00 64 1018.0
20260906042521 57 0 0.0 0.0 0.00 0.00 0.00 65 1018.0
20260906042020 56 0 0.0 0.0 0.00 0.00 0.00 66 1018.0
20260906041540 56 0 0.0 0.0 0.00 0.00 0.00 66 1017.9
20260906041024 56 0 0.0 0.0 0.00 0.00 0.00 65 1018.0
20260906040523 56 0 0.0 0.0 0.00 0.00 0.00 65 1018.0
20260906040046 56 0 0.0 0.0 0.00 0.00 0.00 65 1017.9
20260906035523 57 0 0.0 0.0 0.00 0.00 0.00 65 1018.0
20260906035022 57 0 0.0 0.0 0.00 0.00 0.00 65 1017.9
20260906034555 57 0 0.0 0.0 0.00 0.00 0.00 65 1017.9
20260906034021 57 0 0.0 0.0 0.00 0.00 0.00 65 1017.8
20260906033518 57 0 0.0 0.0 0.00 0.00 0.00 65 1017.8
20260906033041 57 0 0.0 0.0 0.00 0.00 0.00 64 1017.8
20260906032524 57 0 0.0 0.0 0.00 0.00 0.00 65 1017.8
20260906032024 57 0 0.0 0.0 0.00 0.00 0.00 64 1017.7
20260906031544 58 0 0.0 0.0 0.00 0.00 0.00 64 1017.7
20260906031022 58 0 0.0 0.0 0.00 0.00 0.00 63 1017.7
20260906030526 58 0 0.0 0.0 0.00 0.00 0.00 63 1017.6
20260906030042 58 0 0.0 0.0 0.00 0.00 0.00 62 1017.5
20260906025522 58 0 0.0 0.0 0.00 0.00 0.00 62 1017.5
20260906025020 59 0 0.0 0.0 0.00 0.00 0.00 62 1017.5
20260906024541 59 0 0.0 0.0 0.00 0.00 0.00 62 1017.5
20260906024027 59 0 0.0 2.0 0.00 0.00 0.00 61 1017.4
20260906023524 60 0 0.0 2.0 0.00 0.00 0.00 61 1017.5
20260906023044 60 239 0.0 4.0 0.00 0.00 0.00 60 1017.6
20260906022521 60 239 1.0 4.0 0.00 0.00 0.00 60 1017.6
20260906022023 60 239 1.0 4.0 0.00 0.00 0.00 59 1017.5
20260906021544 60 220 1.0 5.0 0.00 0.00 0.00 60 1017.6
20260906021021 60 225 3.0 6.0 0.00 0.00 0.00 59 1017.6
20260906020520 61 227 3.0 6.0 0.00 0.00 0.00 59 1017.6
20260906020053 61 234 1.0 4.0 0.00 0.00 0.00 59 1017.6
20260906015523 61 229 2.0 6.0 0.00 0.00 0.00 59 1017.6
20260906015024 62 223 2.0 6.0 0.00 0.00 0.00 58 1017.5
20260906014547 62 207 2.0 5.0 0.00 0.00 0.00 58 1017.6
20260906014028 62 219 2.0 6.0 0.00 0.00 0.00 57 1017.5
20260906013523 63 221 3.0 6.0 0.00 0.00 0.00 57 1017.6
20260906013045 63 212 4.0 6.0 0.00 0.00 0.00 56 1017.6
20260906012519 63 232 3.0 6.0 0.00 0.00 0.00 56 1017.6
20260906012021 64 234 2.0 6.0 0.00 0.00 0.00 55 1017.6
20260906011540 64 226 2.0 6.0 0.00 0.00 0.00 55 1017.6
20260906011018 65 232 2.0 7.0 0.00 0.00 0.00 54 1017.6
20260906010525 65 194 2.0 7.0 0.00 0.00 0.00 54 1017.6
20260906010054 65 225 2.0 8.0 0.00 0.00 0.00 53 1017.6
20260906005525 65 216 4.0 8.0 0.00 0.00 0.00 53 1017.7
20260906005025 65 218 2.0 7.0 0.00 0.00 0.00 54 1017.5
20260906004559 65 246 3.0 11.0 0.00 0.00 0.00 53 1017.6
20260906004029 65 231 1.0 11.0 0.00 0.00 0.00 54 1017.5
20260906003521 65 238 5.0 10.0 0.00 0.00 0.00 54 1017.5
20260906003042 65 200 2.0 8.0 0.00 0.00 0.00 54 1017.6
20260906002521 65 194 4.0 8.0 0.00 0.00 0.00 53 1017.6
20260906002020 65 220 1.0 7.0 0.00 0.00 0.00 54 1017.6
20260906001556 65 198 2.0 7.0 0.00 0.00 0.00 53 1017.6
20260906001021 66 0 3.0 8.0 0.00 0.00 0.00 52 1017.7
20260906000525 66 190 2.0 8.0 0.00 0.00 0.00 51 1017.6
20260906000042 66 205 4.0 8.0 0.00 0.00 0.00 51 1017.5
20260905235524 66 192 3.0 8.0 0.00 0.00 0.00 51 1017.6
20260905235024 66 220 4.0 8.0 0.00 0.00 0.00 50 1017.5
20260905234547 66 240 2.0 8.0 0.00 0.00 0.00 52 1017.5
20260905234024 66 190 4.0 8.0 0.00 0.00 0.00 51 1017.7
20260905233521 67 225 4.0 8.0 0.00 0.00 0.00 50 1017.6
20260905233053 67 167 3.0 6.0 0.00 0.00 0.00 50 1017.7
20260905232527 66 176 3.0 9.0 0.00 0.00 0.00 50 1017.7
20260905232024 66 214 4.0 10.0 0.00 0.00 0.00 50 1017.8
20260905231541 66 222 6.0 10.0 0.00 0.00 0.00 50 1017.7
20260905231028 66 216 2.0 7.0 0.00 0.00 0.00 49 1017.7
20260905230525 67 191 2.0 8.0 0.00 0.00 0.00 48 1017.8
20260905230045 68 47 2.0 8.0 0.00 0.00 0.00 48 1017.7
20260905225530 68 232 2.0 7.0 0.00 0.00 0.00 48 1017.8
20260905225019 67 344 2.0 7.0 0.00 0.00 0.00 51 1017.9
20260905224540 65 227 2.0 12.0 0.00 0.00 0.00 51 1017.9
20260905224021 65 268 5.0 12.0 0.00 0.00 0.00 51 1018.0
20260905223521 64 214 5.0 10.0 0.00 0.00 0.00 52 1018.0
20260905223049 64 211 3.0 10.0 0.00 0.00 0.00 52 1017.9
20260905222524 64 227 4.0 10.0 0.00 0.00 0.00 52 1018.0
20260905222024 64 267 3.0 8.0 0.00 0.00 0.00 52 1018.0
20260905221547 64 229 4.0 10.0 0.00 0.00 0.00 52 1018.0
20260905221023 64 227 5.0 12.0 0.00 0.00 0.00 51 1018.0
20260905220524 65 232 6.0 12.0 0.00 0.00 0.00 50 1018.0
20260905220042 65 229 4.0 8.0 0.00 0.00 0.00 50 1018.0
20260905215520 65 191 3.0 8.0 0.00 0.00 0.00 50 1018.1
20260905215024 66 188 4.0 8.0 0.00 0.00 0.00 50 1018.1
20260905214550 66 198 4.0 8.0 0.00 0.00 0.00 50 1018.1
20260905214024 65 231 2.0 8.0 0.00 0.00 0.00 49 1018.0
20260905213525 66 258 3.0 8.0 0.00 0.00 0.00 48 1018.0
20260905213049 67 229 3.0 11.0 0.00 0.00 0.00 47 1018.1
20260905212526 68 191 4.0 11.0 0.00 0.00 0.00 46 1018.1
20260905212022 69 200 4.0 11.0 0.00 0.00 0.00 47 1018.0